OBJECT F, 63330

Orbit data source: Space-Track

You're viewing an Uncataloged Satellite

Recently launched and/or uncataloged satellites may have evolving metadata. Metadata may include but not limited to: Owner, Maufacturer, Bus, Motor, and Mission.

OBJECT F, 63330 is a satellite owned by MO RF (CIS) in LEO that was launched on Wed, 05 Feb 2025 UTC via a SOYUZ-2-1V launch vehicle from the Plesetsk Missile And Space Complex (PKMTR). Unknown objects in Earth's orbit typically refer to objects detected orbiting the Earth but have not yet been identified or cataloged. These objects could be anything from previously untracked satellites, spent rocket stages, debris from satellite collisions, or even natural meteoroids temporarily captured by Earth's gravity.

Loading next visibility...
Identifier
63330, 2025-026F
Orbit
LEO
Country
Flag of CISCIS
Related business
Manufacturer
VNIIEM
Mission
Defense Imaging
Bus & Motor
EMKA, Unknown motor
Mass
Unknown
Launch date (UTC)
2025-02-05 (1 year ago)
Launch vehicle
SOYUZ-2-1V
Launch site
Plesetsk Missile And Space Complex (PKMTR)
Object type
Unknown
Shape & HBR
Unknown shape, 0.4 m
Radar Cross Section
Medium (>0.1 m² and <1 m²)

Expand to show TLE details & history
Last TLE update: 20 hours ago

TLE from 20 hours ago
0 OBJECT F
1 63330U 25026F   26033.79197910  .00004208  00000-0  36811-3 0  9993
2 63330  81.9918 210.9792 0012559 145.0834 215.1213 14.96478840 47940
Epoch: 2026-02-02T19:00Z
TLE epoch observation values (Epoch: 2026-02-02T19:00:26.994Z)
Latitude
-0°
Longitude
152.88454°
Altitude
587.978 km
Speed
7.562 km/s
True Right ascension
14h 03m 55s
True Declination
0° 00' 00"
Sunlit
Object was in daylight at epoch
Visualization orbit readout
Latitude
Unknown
Longitude
Unknown
Altitude
Unknown
Speed
Unknown
Apparent Right ascension
Unknown
Apparent Declination
Unknown
Sunlit
N/A
Visualization observer readout
Local Sidereal Time
17:05:02
Azimuth
Unknown
Elevation
Unknown
Doppler factor
Unknown
Orbital elements
Apogee altitude
583.542 km
Perigee altitude
566.078 km
Semi-major axis
6,952.947 km
Eccentricity
0.00126
Inclination
81.9918°
RAAN
210.9792°
Arg. of periapsis
145.0834°
True anomaly
215.03861°
Mean anomaly
215.1213°
Eccentric anomaly
215.07994°
Mean motion
3.7436 °/min
Orbital period
96.16 mins
BSTAR
0.00036811
Loading maneuver chart data...
Computing Atmospheric mass density...
Loading historical data...
Loading historical data...
Loading historical data...
Loading historical data...
Loading historical data...
Loading historical data...
Loading historical data...

Documentation

Showing up to 5 results
|